Cairo, Egypt

8:05 AM EET on August 26, 2016 (GMT +0200)
Cairo International

Weather History for HECA - April, 2013

Change the Weather History Date:

Wednesday, April 3, 2013

  Actual Average Record
Temperature  
Mean Temperature 78 °F -  
Max Temperature 90 °F 81 °F 91 °F (2003)
Min Temperature 66 °F 59 °F 53 °F (2005)
Cooling Degree Days 13    
Growing Degree Days 28 (Base 50)    
Moisture  
Dew Point 40 °F    
Average Humidity 28    
Maximum Humidity 56    
Minimum Humidity 8    
Precipitation  
Precipitation 0.00 in 0.00 in - ()
Sea Level Pressure  
Sea Level Pressure 29.80 in    
Wind  
Wind Speed 9 mph ()    
Max Wind Speed 22 mph    
Max Gust Speed -    
Visibility 3.9 miles    
Events      
Averages and records for this station are not official NWS values.
T = Trace of Precipitation, MM = Missing Value Source: Averaged Metar Reports

Daily Weather History Graph

Daily Weather History Graph

Search for Another Location

Airport or City:

Trip Planner

Search our weather history database for the weather conditions in past years. The results will help you decide how hot, cold, wet, or windy it might be!

Date:

Astronomy

Apr. 03, 2013 Rise Set
Actual Time 5:41 AM EET 6:14 PM EET
Civil Twilight 5:17 AM EET 6:38 PM EET
Nautical Twilight 4:48 AM EET 7:06 PM EET
Astronomical Twilight 4:20 AM EET 7:35 PM EET
Moon 12:37 AM EET (4/3) 11:31 AM EET (4/3)
Length of Visible Light 13h 21m
Length of Day
12h 32m
Waning Gibbous, 47% of the Moon is Illuminated
Apr 3
Waning Gibbous
Apr 10
New
Apr 18
First Quarter
Apr 25
Full
May 2
Last Quarter

Hourly Weather History & Observations

Time (EET) Temp. Dew Point Humidity Pressure Visibility Wind Dir Wind Speed Gust Speed Precip Events Conditions
12:00 AM 68.0 °F 48.2 °F 49% 29.92 in - East 10.4 mph - N/A   Clear
12:30 AM 68.0 °F 48.2 °F 49% 29.92 in - East 10.4 mph - N/A   Clear
1:00 AM 68.0 °F 48.2 °F 49% 29.92 in - SE 9.2 mph - N/A   Clear
1:30 AM 68.0 °F 48.2 °F 49% 29.92 in - SE 9.2 mph - N/A   Clear
2:00 AM 68 °F 49 °F 41% 29.90 in 6 mi East 10.4 mph - -  
2:00 AM 68.0 °F 50.0 °F 52% 29.89 in - East 10.4 mph - N/A   Clear
2:30 AM 68.0 °F 50.0 °F 52% 29.89 in - East 10.4 mph - N/A   Clear
3:00 AM 68.0 °F 46.4 °F 46% 29.89 in - East 9.2 mph - N/A   Clear
3:30 AM 68.0 °F 46.4 °F 46% 29.86 in - East 9.2 mph - N/A   Clear
4:00 AM 68.0 °F 42.8 °F 40% 29.86 in - ESE 11.5 mph - N/A   Clear
4:30 AM 68.0 °F 42.8 °F 40% 29.86 in - SW 5.8 mph - N/A   Clear
5:00 AM 68.0 °F 42.8 °F 40% 29.86 in - SW 3.5 mph - N/A   Clear
5:30 AM 68.0 °F 42.8 °F 40% 29.86 in - Calm Calm - N/A   Clear
6:00 AM 68.0 °F 42.8 °F 40% 29.86 in - ESE 1.2 mph - N/A   Clear
6:30 AM 69.8 °F 42.8 °F 38% 29.86 in - WSW 1.2 mph - N/A   Clear
7:00 AM 69.8 °F 42.8 °F 38% 29.89 in - West 4.6 mph - N/A   Clear
7:30 AM 69.8 °F 46.4 °F 43% 29.89 in - SW 5.8 mph - N/A   Clear
8:00 AM 73 °F 42 °F 21% 29.89 in 6 mi South 5.8 mph - -  
8:00 AM 73.4 °F 41.0 °F 31% 29.89 in - South 5.8 mph - N/A   Clear
8:30 AM 75.2 °F 42.8 °F 31% 29.89 in - South 5.8 mph - N/A   Clear
9:00 AM 78.8 °F 37.4 °F 23% 29.86 in - SSE 8.1 mph - N/A   Clear
9:30 AM 82.4 °F 33.8 °F 17% 29.86 in - SSE 9.2 mph - N/A   Clear
10:00 AM 84.2 °F 30.2 °F 14% 29.86 in - South 9.2 mph - N/A   Clear
10:30 AM 84.2 °F 30.2 °F 14% 29.83 in - South 11.5 mph - N/A   Clear
11:00 AM 86.0 °F 33.8 °F 15% 29.83 in - SSW 12.7 mph - N/A   Clear
11:30 AM 86.0 °F 39.2 °F 19% 29.80 in - SSW 12.7 mph - N/A   Clear
12:00 PM 86.0 °F 37.4 °F 18% 29.80 in - SSW 12.7 mph - N/A   Clear
12:30 PM 87.8 °F 37.4 °F 17% 29.77 in - South 10.4 mph - N/A   Clear
1:00 PM 87.8 °F 35.6 °F 16% 29.77 in - SSW 12.7 mph - N/A   Clear
1:30 PM 87.8 °F 37.4 °F 17% 29.77 in - South 11.5 mph - N/A   Clear
2:00 PM 88 °F 36 °F 8% 29.75 in 6 mi SSW 12.7 mph - -  
2:00 PM 87.8 °F 35.6 °F 16% 29.74 in - SSW 12.7 mph - N/A   Clear
2:30 PM 89.6 °F 37.4 °F 16% 29.74 in - SW 11.5 mph - N/A   Clear
3:00 PM 89.6 °F 37.4 °F 16% 29.71 in - SSW 13.8 mph - N/A   Clear
3:30 PM 89.6 °F 37.4 °F 16% 29.71 in - South 13.8 mph - N/A   Clear
4:00 PM 91.4 °F 35.6 °F 14% 29.71 in - SSW 11.5 mph - N/A   Clear
4:30 PM 89.6 °F 35.6 °F 15% 29.71 in - SSW 12.7 mph - N/A   Clear
5:00 PM 89.6 °F 35.6 °F 15% 29.71 in - SSW 11.5 mph - N/A   Clear
5:30 PM 87.8 °F 35.6 °F 16% 29.71 in - South 11.5 mph - N/A   Clear
6:00 PM 87.8 °F 33.8 °F 15% 29.71 in - South 9.2 mph - N/A   Clear
6:30 PM 86.0 °F 35.6 °F 17% 29.71 in - South 6.9 mph - N/A   Clear
7:00 PM 84.2 °F 35.6 °F 18% 29.68 in - SSE 5.8 mph - N/A   Clear
7:30 PM 84.2 °F 35.6 °F 18% 29.68 in - SE 9.2 mph - N/A   Clear
8:00 PM 84 °F 33 °F 8% 29.68 in 6 mi SSE 10.4 mph - -  
8:00 PM 84.2 °F 33.8 °F 16% 29.68 in - SSE 10.4 mph - N/A   Clear
8:30 PM 84.2 °F 30.2 °F 14% 29.68 in - SSE 15.0 mph - N/A   Clear
9:00 PM 84.2 °F 28.4 °F 13% 29.68 in - SSE 15.0 mph - N/A   Clear
9:30 PM 84.2 °F 28.4 °F 13% 29.71 in 3.7 mi South 15.0 mph - N/A   Unknown
10:00 PM 82.4 °F 35.6 °F 19% 29.71 in 3.7 mi SW 11.5 mph - N/A   Unknown
10:30 PM 73.4 °F 53.6 °F 50% 29.74 in 1.2 mi West 21.9 mph - N/A   Sand
11:00 PM 71.6 °F 53.6 °F 53% 29.77 in 1.2 mi West 20.7 mph - N/A   Sand
11:30 PM 69.8 °F 53.6 °F 56% 29.77 in 1.2 mi West 19.6 mph - N/A   Sand